Henry Post Army Air Field (Fort Sill)
KFSI : now visible

Airfield :











YOU CAN JOIN US ON...

 
LOGIN :

Register | Disclaimer

   EN    FR    IT 

 









Legend :    VFR   Marginal VFR   IFR   Intensive IFR   Very Intensive IFR
Visi :
Ceiling :
>= 8 km
>= 3000ft
5 to 8 km
1000 to 3000 ft
1500m to 5 km
500 to 1000 ft
800 to 1500m
200 to 500 ft
< 800m
< 200 ft
Symbols :   Thunderstorms  Fog  Heavy snow  Heavy precipitations  Wind > 20 kt






- Airport Elevation : 1189 ft


KFSI - Henry Post Army Air Field (Fort Sill)

CURRENT METAR :
  • 172256Z AUTO 32007KT 10SM CLR 13/M08 A3004 RMK AO2 SLP171 T01281078 $

EXPIRED METARs :
  • 172156Z AUTO 32010G14KT 10SM CLR 14/M08 A3005 RMK AO2 SLP174 T01371077 $
  • 172056Z AUTO 32011KT 10SM FEW100 12/M08 A3007 RMK AO2 SLP182 T01231077 57023 $
  • 171956Z AUTO 33009KT 10SM SCT100 12/M07 A3008 RMK AO2 SLP185 T01231072 $

Expired Forecast.
KZFW FIR / North America



MET'MAP, your aeronautical weather chart ! - Copyright ORBIFLY December 2007 - Disclaimer

ORBIFLY MET'MAP TEAM :

Programming & Development : Alexandra Zaïnal
Concept & original design : Baudouin d'Aumeries
Assistance for programming : Marc-Olivier Méhu
Technical & hardware support : Manuel Goepfert

Contact : metmap@orbifly.com




SOURCES & CREDITS :

   NOAA       Earth
Advisory